Location: Vienna
(38.9012°N, 77.2653°W)
Time: 10:53:01
(UTC-04:00)

Hubble Space Telescope - Visible Passes

Search period start: 22 July 2018 00:00
Search period end: 01 August 2018 00:00
Orbit: 537 x 541 km, 28.5° (Epoch: 21 July)

Date Brightness Start Highest point End Pass type
(mag) Time Alt. Az. Time Alt. Az. Time Alt. Az.
22 Jul 2.5 04:53:17 14° SSW 04:53:50 15° SSW 04:56:11 10° SSE visible
23 Jul 2.8 04:43:59 13° S 04:43:59 13° S 04:45:20 10° SSE visible
29 Jul 3.3 22:25:40 10° SW 22:25:45 10° SW 22:25:45 10° SW visible
30 Jul 2.9 22:15:05 10° SW 22:16:15 15° SSW 22:16:15 15° SSW visible
31 Jul 2.6 22:04:34 10° SW 22:06:36 18° SSW 22:06:36 18° SSW visible
